Miscellaneous Local Product
Issued by NWS Hastings, NE

Home | Current Version | Previous Version | Graphics & Text | Print | Product List | Glossary On
Versions: 1 2 3 4 5 6 7 8 9 10 11 12 13 14 15 16 17 18 19 20 21 22 23 24 25 26 27 28 29 30 31 32 33 34 35 36 37 38 39 40 41 42 43 44 45 46 47 48 49 50
000
AXUS43 KGID 150402
MISGRI

GID CWA HOURLY WEATHER ROUNDUP
NATIONAL WEATHER SERVICE HASTINGS NE
1000 PM CST SAT JAN 14 2017

NOTE: "FAIR" INDICATES FEW OR NO CLOUDS BELOW 12,000 FEET WITH NO
SIGNIFICANT WEATHER AND/OR OBSTRUCTIONS TO VISIBILITY.

...SOUTH CENTRAL NEBRASKA...

CITY           SKY/WX    TMP DP  RH WIND       PRES   REMARKS
GRAND ISLAND   CLOUDY    28  21  75 CALM      30.39F
HASTINGS       CLOUDY    31  17  56 S5        30.39S WCI  26
KEARNEY        CLOUDY    30  18  59 CALM      30.37F
ORD            CLOUDY    11   7  84 CALM      30.36F
YORK           CLOUDY    28  19  69 CALM      30.40S
AURORA         CLOUDY    30  19  64 CALM      30.39R
LEXINGTON      CLOUDY    30  23  75 CALM      30.35S
HOLDREGE       CLOUDY    29  19  64 CALM      30.35F
HEBRON         MOCLDY    31  18  59 CALM      30.42R

...NEBRASKA PANHANDLE...

CITY           SKY/WX    TMP DP  RH WIND       PRES   REMARKS
CHADRON        CLOUDY    15  11  83 S3        30.26F
ALLIANCE       CLEAR     23  16  74 SE3       30.26F
SCOTTSBLUFF    CLOUDY    27  21  78 E9        30.26F WCI  18
SIDNEY         CLOUDY    21  16  81 N6        30.26F WCI  13

...WESTERN AND NORTH CENTRAL NEBRASKA...

CITY           SKY/WX    TMP DP  RH WIND       PRES   REMARKS
VALENTINE      CLEAR     26  17  68 S7        30.31F WCI  18
AINSWORTH      CLEAR     21  18  90 S8        30.33F WCI  11
ONEILL         CLOUDY    22  19  89 S3        30.37F
BROKEN BOW     CLOUDY    17  14  88 CALM      30.34F
IMPERIAL       CLOUDY    24  19  81 CALM      30.29F
NORTH PLATTE   CLOUDY    25  19  78 NE3       30.32F
MCCOOK         CLOUDY    31  19  61 E5        30.33F WCI  26

...EASTERN NEBRASKA...

CITY           SKY/WX    TMP DP  RH WIND       PRES   REMARKS
NORFOLK        CLOUDY    14  10  84 CALM      30.40F
SO SIOUX CITY  CLOUDY    22  16  78 CALM      30.45S
TEKAMAH        PTCLDY    19  14  81 CALM      30.46S
COLUMBUS       CLOUDY    27  19  74 CALM      30.42F
ALBION         CLOUDY    12   9  87 CALM      30.39F
OMAHA EPPLEY   CLOUDY    28  19  69 CALM      30.45F
OFFUTT AFB     CLOUDY    28  22  81 NE5       30.44F WCI  22
MILLARD        CLOUDY    31  18  57 CALM      30.45F
LINCOLN        CLOUDY    28  18  66 NE7       30.43F WCI  21
NEBRASKA CITY  CLOUDY    28  16  59 CALM      30.43F
BEATRICE       CLOUDY    32  20  62 SE3       30.42F
FALLS CITY     CLOUDY    29  19  66 SE3       30.44F

...NORTHERN KANSAS...

CITY           SKY/WX    TMP DP  RH WIND       PRES   REMARKS
GOODLAND       CLOUDY    29  21  72 S3        30.27F
HILL CITY      CLOUDY    31  18  58 E6        30.36F WCI  25
NORTON         CLOUDY    28  16  59 SE3       30.35R
PHILLIPSBURG   CLOUDY    30  19  64 E3        30.39S
SMITH CENTER   CLOUDY    30  18  59 E6        30.39F WCI  24
HAYS           CLOUDY    30  28  92 SE5       30.38F WCI  25
RUSSELL        CLOUDY    30  25  81 SE6       30.37F WCI  24
CONCORDIA      CLOUDY    31  16  54 CALM      30.42R
SALINA         CLOUDY    32  21  64 CALM      30.44
TOPEKA         CLOUDY    32  22  66 E3        30.44F



USA.gov is the U.S. government's official web portal to all federal, state and local government web resources and services.